Simultaneous Nadir Overpasses (SNOs) Predictions

Prediction of SNOs between GOES-16 and NOAA-19 Satellite Orbit:

Table of predicted SNOs for the next 14.0 days since TLE Epoch: 7/31/2021
Index Date Time (GOES-16) GOES-16 Lat,Lon NOAA-19 Lat,Lon Distance(km) Time Diff (sec)
1 07/31/2021 12:08:16 -0.08, -75.23 0.29, -76.73 171.72 80
2 08/01/2021 11:53:51 -0.09, -75.24 -0.40, -73.87 156.43 80
3 08/02/2021 11:42:07 -0.09, -75.24 -1.10, -71.00 484.63 80
4 08/04/2021 00:17:25 0.08, -75.23 -0.74, -78.81 408.77 80
5 08/05/2021 00:05:39 0.08, -75.24 -0.09, -75.94 80.23 80
6 08/05/2021 23:51:14 0.09, -75.25 0.57, -73.06 248.39 80
7 08/08/2021 12:14:40 -0.08, -75.31 0.56, -77.98 305.48 80
8 08/09/2021 12:00:15 -0.09, -75.32 -0.14, -75.11 23.39 80
9 08/10/2021 11:48:31 -0.10, -75.34 -0.84, -72.25 352.46 80
10 08/13/2021 00:12:02 0.09, -75.35 -0.32, -77.18 208.88 80
11 08/13/2021 23:57:36 0.09, -75.37 0.34, -74.31 120.80 80
